Find Starlink 4038

NORAD ID: 53150 Int'l Des: 2022-083 Owner: SPXS Country: US Constellation: starlink decayed
LEOCIRCULAR
Vis

Historical Track — Mar 31, 2026

正在加载3D地球...

关于 Starlink 4038

正在加载描述...

高度历史

Loading altitude history...

两行轨道根数

1 53150U 22083U 26090.31863931 .10472059 12519-4 20413-3 0 9993
2 53150 53.1839 7.3780 0005496 255.5368 104.5074 16.46949192205456
Epoch: Mar 31, 2026 • Age: 889 hours

当前状态

Position data unavailable
发射日期 Jul 17, 2022
运行时间 3.8 years
衰减日期 Mar 31, 2026
类型 internet

技术详情

分类 Payload
质量 297.00 kg
干质量 275.00 kg
总质量 297.00 kg
长度 0.20 m
直径 2.80 m
跨度 9.00 m
形状 Box + pan
制造商 SPXS
平台类型 Starlink
阶段状态 Unknown Transfer Status
所有者/国家 SPXS/US

Most Searched